TIANQI-6 (46810 NORAD) Tracking and Keplerian Element Data

This shows tracking and keplerian element data for the satellite.

Feedback or suggestion? Click here.




ElementValue
Catalog46810
NameTIANQI-6
Epoch Orbit451
Epoch Day330.94444403
Epoch Year2020
RAAN59.3448
Inclination35.0053
Eccentricity0.0014078
Argument of Perigee215.6273
Mean Anonmoly144.3492
Mean Motion14.91382513
Decay Rate3.72E-06
L11 46810U 20076D 20330.94444403 .00000372 00000-0 39216-4 0 9991
L22 46810 35.0053 59.3448 0014078 215.6273 144.3492 14.91382513 4510

Live tracking and technical data element details for TIANQI-6 (NORAD 46810). TIANQI-6 can be tracked NOW for your location showing map with azimuth and elevation plus other details from your city location.

Track the satellite on the map from your city or location and see movement details for azimuth, elevation, latitude, longitude, range, height, and movement on the map or in text.







IsCatalogInMostPopularTable: catalog: 46810, numindb: 9
Update: records affected: 1



GetName: 46810 TIANQI-6

Hit Count: updated at: Fri, 27 Nov 2020 00:07:10 GMT